Regional Weather Roundup
Issued by NWS Northern Indiana

Home | Current Version | Previous Version | Text Only | Print | Product List | Glossary Off
Versions: 1 2 3 4 5 6 7 8 9 10 11 12 13 14 15 16 17 18 19 20 21 22 23 24 25 26 27 28 29 30 31 32 33 34 35 36 37 38 39 40 41 42 43 44 45 46 47 48 49 50

000
ASUS43 KIWX 200810
RWRIWX

KIWX WEATHER ROUNDUP
NATIONAL WEATHER SERVICE NORTHERN INDIANA
400 AM EDT WED AUG 20 2014

NOTE: "FAIR" INDICATES FEW OR NO CLOUDS BELOW 12,000 FEET WITH NO
SIGNIFICANT WEATHER AND/OR OBSTRUCTIONS TO VISIBILITY.

* THESE STATIONS ARE NOT UNDER NWS QUALITY CONTROL. THEY ALSO MAY NOT
  REPORT WEATHER SUCH AS PRECIPITATION OR FOG.

INZ001>027-200900-
NORTHERN INDIANA

CITY           SKY/WX    TMP DP  RH WIND       PRES   REMARKS
GARY*          CLEAR     70  66  89 CALM      29.81R
VALPARAISO     CLEAR     65  64  97 W6        29.81R
MICHIGAN CITY* CLEAR     64  64 100 SW3       29.80R
LAPORTE*       CLEAR     65  65 100 W5        29.81R
KNOX*          CLEAR     67  64  91 W6        29.79R
SOUTH BEND     NOT AVBL
GOSHEN         CLEAR     67  64  90 S3        29.80R
MONTICELLO*    CLEAR     65  64  98 CALM      29.81R
LOGANSPORT*    CLEAR     66  63  88 W7        29.83R
ROCHESTER*     CLEAR     68  68 100 SW5       29.82R
WARSAW*        CLEAR     64  64 100 SW3       29.81R
ANGOLA*        PTCLDY    66  57  72 CALM      29.80R
FORT WAYNE     MOCLDY    67  65  93 SW6       29.82R
HUNTINGTON*    MOCLDY    66  64  94 SW5       29.81R
PERU/GRISSOM   CLEAR     66  66 100 SW5       29.82R
MARION*        PTCLDY    65  64  95 SW5       29.84R

$$
INZ028>050-200900-
CENTRAL INDIANA

CITY           SKY/WX    TMP DP  RH WIND       PRES   REMARKS
LAFAYETTE      CLEAR     63  63 100 CALM      29.82R
KOKOMO*        CLEAR     66  61  82 SW8       29.83R
MUNCIE*        CLOUDY    68  63  84 SW7       29.84R
INDIANAPOLIS   CLEAR     65  63  93 SW5       29.84S

$$
MIZ043>046-050>051-056>058-064>065-071>073-077>080-200900-
SOUTHWEST LOWER MICHIGAN

CITY           SKY/WX    TMP DP  RH WIND       PRES   REMARKS
BATTLE CREEK   MOCLDY    67  65  93 CALM      29.79R
BENTON HARBOR  CLEAR     68  65  90 W3        29.78R
COLDWATER*     PTCLDY    67  66  96 SW3       29.79S
HILLSDALE*     MOCLDY    66  66 100 CALM      29.79S FOG
HOLLAND        CLEAR     68  66  93 W3        29.78R
GRAND RAPIDS   CLEAR     66  66 100 W6        29.78R FOG
KALAMAZOO      CLEAR     68  66  93 CALM      29.78R FOG
STURGIS*       CLEAR     64  63  94 S5        29.79R FOG
THREE RIVERS*  FAIR      66  66  97 S3        29.79R FOG

$$
OHZ001>008-015>018-024>025-200900-
NORTHWEST OHIO

CITY           SKY/WX    TMP DP  RH WIND       PRES   REMARKS
WAUSEON*       FAIR      64  64 100 S3        29.80R FOG
DEFIANCE       CLOUDY    69  66  90 SW5       29.80R
FINDLAY        CLOUDY    67  64  90 SW6       29.81R
TOLEDO EXPRESS CLOUDY    65  64  97 SE5       29.79R
TOLEDO METCALF CLOUDY    67  63  87 CALM      29.81R
LIMA             N/A    N/A N/A N/A MISG      29.83R

$$
&&


USA.gov is the U.S. government's official web portal to all federal, state and local government web resources and services.